Flag for Turkmenistan Weather past 2 weeks in Ashgabat, Turkmenistan

Now
39 °F

Fog.


Feels Like: 39 °F
Forecast: 40 / 57 °F
Wind: No wind

Location: Ashgabat

Current Time: Dec 20, 2014 at 2:07:49 AM

Latest Report: Dec 20, 2014 at 1:30 AM


Visibility: 2 mi

Pressure: 30.07 "Hg

Humidity: 93%

Dew point: 37 °F

Location of AshgabatLocation

Historic Weather in Ashgabat — Graph

°F

Ashgabat temperature yesterday

Maximum temperature yesterday: 46 °F (at 5:00 PM)
Minimum temperature yesterday: 32 °F (at 9:00 AM)
Average temperature yesterday: 37 °F

Past Weeks' High & Low Weather Summary

 TemperatureHumidityPressure
High57 °F (Dec 13, 3:00 PM)100% (Dec 5, 5:00 AM)30.83 "Hg (Dec 5, 5:00 AM)
Low25 °F (Dec 8, 8:00 AM)24% (Dec 13, 2:00 PM)30.07 "Hg (Dec 19, 1:30 PM)
Average38 °F78%30.34 "Hg
* Reported Dec 5 1:00 AM — Dec 20 1:00 AM, Ashgabat, Weather by CustomWeather, © 2014

Note: Actual official high and low records may vary slightly from our data, if they occured in-between our weather recording intervals... More about our weather records

Advertising

Ashgabat weather history for previous 24 hours

 ConditionsComfort  
Time TempWeatherWind HumidityBarometerVisibility
1:00 AM
Dec 20
39 °FFog.No wind93%30.07 "Hg1 mi
12:30 AM39 °FFog.No wind93%30.07 "Hg1 mi
12:00 AM39 °FFog.No wind93%30.07 "Hg1 mi
11:30 PM
Dec 19
37 °FFog.No wind100%30.07 "Hg1 mi
11:00 PM39 °FFog.1 mph93%30.07 "Hg1 mi
10:30 PM39 °FFog.No wind93%30.07 "Hg1 mi
10:00 PM39 °FFog.1 mph100%30.07 "Hg2 mi
9:30 PM41 °FFog.3 mph93%30.07 "Hg2 mi
9:00 PM43 °FFog.1 mph87%30.09 "Hg2 mi
8:00 PM43 °FFog.No wind87%30.09 "Hg3 mi
5:00 PM46 °FBroken clouds.6 mph76%30.07 "Hg4 mi
4:00 PM45 °FBroken clouds.6 mph81%30.07 "Hg4 mi
3:00 PM43 °FFog.6 mph87%30.07 "Hg3 mi
2:00 PM39 °FFog.8 mph100%30.07 "Hg2 mi
1:30 PM39 °FFog.6 mph100%30.07 "Hg2 mi
1:00 PM37 °FFog.3 mph100%30.09 "Hg1 mi
12:00 PM36 °FFog.3 mph100%30.12 "Hg0 mi
11:30 AM36 °FFog.6 mph100%30.12 "Hg0 mi
11:00 AM34 °FFog.3 mph100%30.15 "Hg0 mi
10:30 AM34 °FFog.6 mph93%30.12 "Hg0 mi
10:00 AM32 °FFog.3 mph100%30.12 "Hg0 mi
9:30 AM32 °FFog.6 mph100%30.12 "Hg0 mi
9:00 AM32 °FFog.6 mph100%30.15 "Hg0 mi
8:30 AM34 °FFog.3 mph93%30.15 "Hg0 mi
8:00 AM34 °FFog.3 mph93%30.15 "Hg0 mi
7:30 AM34 °FFog.6 mph100%30.15 "Hg0 mi
7:00 AM34 °FFog.3 mph100%30.12 "Hg0 mi
6:30 AM34 °FFog.6 mph100%30.15 "Hg0 mi
6:00 AM34 °FFog.6 mph93%30.15 "Hg0 mi
5:30 AM34 °FFog.6 mph100%30.15 "Hg1 mi
5:00 AM34 °FFog.3 mph100%30.15 "Hg1 mi
4:30 AM36 °FFog.6 mph93%30.15 "Hg1 mi
4:00 AM36 °FFog.1 mph93%30.15 "Hg1 mi
3:30 AM36 °FFog.6 mph93%30.15 "Hg2 mi
3:00 AM36 °FFog.3 mph100%30.15 "Hg2 mi
2:00 AM39 °FFog.3 mph87%30.18 "Hg3 mi
Weather by CustomWeather, © 2014

See weather overviewHow to use our weather pages